FW5345 Weather Reports


Display with metric or nautical units.
time (UTC)temp
F
wind
direction
speed
MPH
gust
MPH
rain 1hr
in
rain 24hr
in
rain mn
in
humidity
%
barometer
mb
20260508063035 47 165 3.0 6.0 0.00 0.00 0.00 59 1016.9
20260508061610 47 149 5.0 8.0 0.00 0.00 0.00 57 1017.0
20260508060035 48 162 4.0 7.0 0.00 0.00 0.00 55 1017.1
20260508054537 49 157 2.0 5.0 0.00 0.00 0.00 51 1017.1
20260508053035 51 152 1.0 6.0 0.00 0.00 0.00 49 1017.1
20260508051534 53 140 2.0 6.0 0.00 0.00 0.00 45 1017.1
20260508050034 54 191 2.0 7.0 0.00 0.00 0.00 42 1017.1
20260508044532 55 294 2.0 6.0 0.00 0.00 0.00 40 1017.1
20260508041535 59 325 7.0 13.0 0.00 0.00 0.00 32 1016.7
20260508040036 61 318 8.0 16.0 0.00 0.00 0.00 28 1016.6
20260508034642 61 306 9.0 15.0 0.00 0.00 0.00 30 1016.4
20260508033111 61 316 8.0 16.0 0.00 0.00 0.00 34 1016.1
20260508030030 62 320 6.0 13.0 0.00 0.00 0.00 35 1016.3
20260508024530 63 316 6.0 16.0 0.00 0.00 0.00 34 1016.3
20260508021647 65 318 6.0 8.0 0.00 0.00 0.00 36 1016.0
20260508020034 67 314 7.0 13.0 0.00 0.00 0.00 33 1016.0
20260508011642 69 312 6.0 17.0 0.00 0.00 0.00 30 1016.2
20260508010035 69 310 7.0 12.0 0.00 0.00 0.00 29 1016.2
20260508004529 69 307 7.0 14.0 0.00 0.00 0.00 29 1016.2
20260508003108 70 311 9.0 16.0 0.00 0.00 0.00 29 1016.1
20260508001536 71 299 7.0 18.0 0.00 0.00 0.00 27 1016.1
20260508000038 70 305 8.0 17.0 0.00 0.00 0.00 25 1016.1
20260507234609 71 301 8.0 18.0 0.00 0.00 0.00 25 1016.0
20260507231607 71 310 9.0 20.0 0.00 0.00 0.00 25 1016.2
20260507230035 71 306 9.0 20.0 0.00 0.00 0.00 25 1016.3
20260507224534 71 309 8.0 16.0 0.00 0.00 0.00 24 1016.4
20260507223031 71 305 8.0 16.0 0.00 0.00 0.00 25 1016.5
20260507220038 70 308 7.0 17.0 0.00 0.00 0.00 28 1017.0
20260507214641 70 322 7.0 13.0 0.00 0.00 0.00 29 1017.0
20260507213030 70 331 8.0 18.0 0.00 0.00 0.00 31 1017.1
20260507211537 69 338 9.0 14.0 0.00 0.00 0.00 31 1017.1
20260507210142 69 330 8.0 18.0 0.00 0.00 0.00 32 1017.3
20260507203107 69 327 8.0 15.0 0.00 0.00 0.00 34 1017.4
20260507200153 68 311 9.0 17.0 0.00 0.00 0.00 34 1017.7
20260507193110 68 305 8.0 15.0 0.00 0.00 0.00 33 1017.9
20260507190034 66 318 7.0 15.0 0.00 0.00 0.00 35 1018.0
20260507184535 66 314 8.0 16.0 0.00 0.00 0.00 36 1018.1
20260507183037 65 320 7.0 13.0 0.00 0.00 0.00 38 1018.2
20260507181536 64 305 8.0 13.0 0.00 0.00 0.00 40 1018.4
20260507174652 62 310 8.0 16.0 0.00 0.00 0.00 46 1018.7
20260507171538 60 337 7.0 14.0 0.00 0.00 0.00 52 1018.9
20260507170033 59 346 6.0 11.0 0.00 0.00 0.00 55 1018.8
20260507164535 58 357 7.0 13.0 0.00 0.00 0.00 56 1018.8
20260507163037 58 7 8.0 14.0 0.00 0.00 0.00 58 1018.8
20260507161539 58 360 6.0 12.0 0.00 0.00 0.00 58 1018.8
20260507160032 57 12 6.0 13.0 0.00 0.00 0.00 59 1018.8
20260507154534 56 20 8.0 13.0 0.00 0.00 0.00 60 1018.9
20260507153032 56 3 5.0 11.0 0.00 0.00 0.00 61 1018.9
20260507150047 53 355 4.0 8.0 0.00 0.00 0.00 70 1019.0
20260507144644 53 4 5.0 9.0 0.00 0.00 0.00 72 1019.0
20260507141642 51 77 2.0 4.0 0.00 0.00 0.00 75 1018.9
20260507140035 52 33 3.0 7.0 0.00 0.00 0.00 72 1018.7
20260507134533 52 317 3.0 7.0 0.00 0.00 0.00 72 1018.7
20260507133041 52 325 4.0 8.0 0.00 0.00 0.00 72 1018.7
20260507131536 52 318 5.0 16.0 0.00 0.00 0.00 73 1018.7
20260507130036 52 333 5.0 13.0 0.00 0.00 0.00 73 1018.7
20260507123031 54 325 5.0 15.0 0.00 0.00 0.00 70 1018.7
20260507121532 54 305 6.0 16.0 0.00 0.00 0.00 70 1018.6
20260507114535 54 278 5.0 20.0 0.00 0.00 0.00 69 1018.6
20260507113033 55 264 7.0 20.0 0.00 0.00 0.00 69 1018.6
20260507111652 55 252 7.0 18.0 0.00 0.00 0.00 70 1018.6
20260507110108 54 265 5.0 18.0 0.00 0.00 0.00 70 1018.6
20260507103037 55 255 5.0 17.0 0.00 0.00 0.00 69 1018.5
20260507101537 55 260 5.0 19.0 0.00 0.00 0.00 67 1018.6
20260507100049 56 246 3.0 10.0 0.00 0.00 0.00 66 1018.7
20260507093036 56 256 4.0 12.0 0.00 0.00 0.00 65 1018.9
20260507091530 56 258 4.0 10.0 0.00 0.00 0.00 66 1019.0
20260507083033 55 240 2.0 9.0 0.00 0.00 0.00 70 1019.5
20260507081536 56 299 4.0 11.0 0.00 0.00 0.00 70 1019.5
20260507080031 56 298 6.0 13.0 0.00 0.00 0.00 71 1019.5
20260507074536 56 311 5.0 10.0 0.00 0.00 0.00 70 1019.6
20260507071534 56 299 5.0 13.0 0.00 0.00 0.00 69 1019.5
20260507070035 56 289 2.0 8.0 0.00 0.00 0.00 70 1019.5
20260507064538 56 339 3.0 12.0 0.00 0.00 0.00 70 1019.6